Location: Amsterdam
(30.7274°N, 84.4357°W)
Time: 05:24:46
(UTC+00:00)

Courier 1B Rocket - Pass Details

Date: 11 February 2026
Orbit: 920 x 1201 km, 28.2° (Epoch: 5 March)

Event Time Altitude Azimuth Distance (km) Brightness Sun altitude
Rises 03:26:40 0° 244° (WSW) 3,660 8.4 -52.7°
Enters shadow 03:27:10 - 244° (WSW) 3,484 8.2 -52.8°
Reaches altitude 10° 03:29:18 10° 240° (WSW) 2,750 - -53.3°
Maximum altitude 03:35:49 55° 165° (SSE) 1,242 - -54.6°
Drops below altitude 10° 03:42:50 10° 89° (E) 2,958 - -56.0°
Sets 03:45:46 0° 85° (E) 3,959 - -56.6°
